User: anonymous   Login
Location: Unspecified
(0.0000°N, 0.0000°E)
Time: 01:27:29
(UTC+00:00)
Language:

Sich 1 - Orbit

View from above orbital plane
View from above orbital plane
View from above satellite
View from above satellite

Ground track
Ground track

The orbit data is extracted from the following two-line orbital elements,

1 23657U 95046A   17266.80855657  .00000250  00000-0  25742-4 0  9994
2 23657  82.5293 168.1625 0023594 113.6458 246.7239 14.85866367192126
Epoch (UTC): 23 September 2017 19:24:19
Eccentricity: 0.0023594
inclination: 82.5293°
perigee height: 594 km
apogee height: 627 km
right ascension of ascending node: 168.1625°
argument of perigee: 113.6458°
revolutions per day: 14.85866367
mean anomaly at epoch: 246.7239°
orbit number at epoch: 19212

The dashed part of the orbit path shows where the satellite is in the earth's shadow,  

DLR